Location: Del Amo
(33.8464°N, 118.2104°W)
Time: 08:34:43
(UTC+00:00)

BlueWalker 3 - Visible Passes

Search period start: 21 May 2026 00:00
Search period end: 31 May 2026 00:00
Orbit: 447 x 457 km, 53.2° (Epoch: 20 May)

Date Brightness Start Highest point End Pass type
(mag) Time Alt. Az. Time Alt. Az. Time Alt. Az.
21 May 3.0 03:40:21 10° S 03:42:57 19° SE 03:45:33 10° ENE visible
21 May 3.5 05:16:56 10° WSW 05:20:09 32° NW 05:23:23 10° NNE visible
21 May 3.6 11:52:01 10° NNW 11:55:17 34° NE 11:58:33 10° ESE visible
22 May 2.8 04:39:52 10° WSW 04:43:16 45° NW 04:46:42 10° NNE visible
22 May 4.1 11:15:23 10° NNW 11:18:23 25° NE 11:21:23 10° E visible
23 May 2.1 04:02:54 10° SW 04:06:25 66° NW 04:09:56 10° NE visible
23 May 4.6 10:38:49 10° NNW 10:41:27 19° NE 10:44:06 10° E visible
23 May 2.2 12:15:38 10° WNW 12:18:56 38° SW 12:22:14 10° SSE visible
24 May 1.6 03:26:03 10° SW 03:29:35 83° SE 03:33:08 10° NE visible
24 May 5.2 05:05:52 10° NW 05:07:23 12° NNW 05:08:54 10° N visible
24 May 4.9 10:02:21 10° N 10:04:30 15° NNE 10:06:39 10° ENE visible
24 May 1.7 11:38:40 10° NW 11:42:08 57° SW 11:45:36 10° SSE visible
25 May 4.9 04:28:11 10° WNW 04:30:23 15° NNW 04:32:36 10° N visible
25 May 5.1 09:26:04 10° N 09:27:30 12° NNE 09:28:55 10° NE visible
25 May 1.5 11:01:47 10° NW 11:05:19 86° SW 11:08:50 10° SE visible
26 May 4.7 03:50:44 10° W 03:53:25 20° NW 03:56:07 10° NNE visible
26 May 4.3 10:24:57 10° NW 10:33:31 - SE 10:25:22 13° NW visible
